Starlink 31363

operational
NORAD ID: 59782 Int'l Des: 2024-093 Owner: SPXS Country: US Constellation: starlink
LEOCIRCULAR

About Starlink 31363

Description loading...

Live Position

Loading 3D Globe...

Upcoming Passes

Altitude History

Altitude vs Time

uPlot chart will show altitude changes over time

Two-Line Element Set

1 59782U 24093A 25307.11260696 .00000324 00000-0 21285-4 0 9998
2 59782 43.0011 200.5335 0000589 279.1521 80.9264 15.27568580 83376
Epoch: Nov 3, 2025 • Age: 40 hours

Current Status

Altitude 482.7 km
Velocity 7.63 km/s
Sub-Earth Point 2.40°N, 43.74°E
Launch Date May 18, 2024
Age 1.4 years
Type internet

Technical Details

Classification Payload
Mass 730.00 kg
Dry Mass 700.00 kg
Total Mass 730.00 kg
Length 0.30 m
Diameter 4.10 m
Span 29.00 m
Shape Box + pan
Manufacturer SPXS
Bus Type Starlink V2M
Phase Status In Orbit
Owner/State SPXS/US

Large Constellations

Loading constellations...